Miscellaneous Local Product
Issued by NWS North Platte, NE

Home | Current Version | Previous Version | Graphics & Text | Print | Product List | Glossary On
Versions: 1 2 3 4 5 6 7 8 9 10 11 12 13 14 15 16 17 18 19 20 21 22 23 24 25 26 27 28 29 30 31 32 33 34 35 36 37 38 39 40 41 42 43 44 45 46 47 48 49 50
169
AXUS43 KLBF 080510
MISLBF


WESTERN AND NORTH CENTRAL NEBRASKA HOURLY WEATHER ROUNDUP
NATIONAL WEATHER SERVICE NORTH PLATTE NE
1100 PM CST SUN FEB 07 2016

NOTE: "FAIR" INDICATES FEW OR NO CLOUDS BELOW 12,000 FEET WITH NO
SIGNIFICANT WEATHER AND/OR OBSTRUCTIONS TO VISIBILITY.

NOTE: STATIONS NOT REPORTING VARIABLES SUCH AS SKY/WEATHER OR
PRESSURE ARE PROVIDED BY THE NEBRASKA DEPARTMENT OF
ROADS...RAWS...AND APRS NETWORKS...AND ARE NOT UNDER
NATIONAL WEATHER SERVICE QUALITY CONTROL.

...OBSERVATIONS IN AND NEAR THE EASTERN PANHANDLE OF NEBRASKA...

CITY           SKY/WX    TMP DP  RH WIND       PRES   REMARKS
PINE RIDGE     CLEAR     26  10  50 NW12      30.30R WCI  16
CHADRON        CLEAR     28  14  55 NW20G29   30.33R WCI  15
ALLIANCE       CLEAR     19  10  68 NW16      30.30R WCI   4
SIDNEY         CLEAR     25  12  58 NW26G33   30.33S WCI   9
BIG SPRINGS      N/A     27  17  66 NW14        N/A  WCI  16
$$

...OBSERVATIONS IN NORTH CENTRAL NEBRASKA...

CITY           SKY/WX    TMP DP  RH WIND       PRES   REMARKS
VALENTINE      CLOUDY    32  17  54 NW31G40   30.19R WCI  17
THEDFORD       CLEAR     31  17  56 NW18G28   30.21S WCI  19
AINSWORTH      MOCLDY    33  17  52 NW30G39   30.16F WCI  19
O`NEILL        PTCLDY    32  17  52 NW22G35   30.10S WCI  19
ORD            CLEAR     31  18  58 NW22G28   30.12R WCI  18
BROKEN BOW     MOCLDY    33  18  53 NW28G35   30.15S WCI  20
BUTTE            N/A     32  19  58 NW26G38     N/A  WCI  18
CHAMBERS         N/A     30  13  49 W9G22       N/A  WCI  22
EWING            N/A     31  17  56 NW14G23     N/A  WCI  21
$$

...OBSERVATIONS IN SOUTHWEST NEBRASKA AND FAR NORTHEAST COLORADO...

CITY           SKY/WX    TMP DP  RH WIND       PRES   REMARKS
WRAY           FAIR      28  14  57 NW17G26   30.34R WCI  15
HOLYOKE        FAIR      32  16  51 NW21G30   30.32S WCI  20
IMPERIAL       CLEAR     28  13  53 NW23G31   30.29R WCI  14
OGALLALA       CLEAR     26  14  59 NW18      30.29R WCI  13
NORTH PLATTE   CLEAR     25  14  63 NW13      30.24R WCI  14
MCCOOK         CLEAR     29  17  61 NW20      30.26R WCI  16
LEXINGTON      CLEAR     28  16  61 NW15      30.21R WCI  16
PAXTON           N/A     31  19  60 NW17        N/A  WCI  20
STAPLETON        N/A     28  15  58 CALM        N/A
GOTHENBURG       N/A     27  13  56 W7          N/A  WCI  20
CALLAWAY         N/A     30  17  58 NW20        N/A  WCI  17
$$

...OBSERVATIONS IN CENTRAL LINCOLN COUNTY AREA...

CITY           SKY/WX    TMP DP  RH WIND       PRES   REMARKS
N.P. AIRPORT   CLEAR     25  14  63 NW13      30.24R WCI  14
N.P. DOWNTOWN    N/A     29  17  59 NW7         N/A  WCI  22
N.P. SOUTHEAST   N/A     29  15  56 N7G15       N/A  WCI  22
N.P. HILLCREST   N/A     28  17  64 NW13        N/A  WCI  17
$$

...SOME OBSERVATIONS FROM AROUND THE REGION...

CITY           SKY/WX    TMP DP  RH WIND       PRES   REMARKS
DENVER         CLOUDY    15  10  80 SE17      30.37S WCI  -1
LARAMIE          N/A     14  10  84 NE5       30.34R WCI   6
CHEYENNE       CLOUDY    20  11  68 N7        30.34R WCI  11
SCOTTSBLUFF    CLEAR     26  13  57 NW13      30.37S WCI  15
RAPID CITY     CLEAR     32   9  38 NW32G45   30.28R WCI  17
BISMARCK       CLEAR     30  17  58 NW29G41   30.16S WCI  15
PIERRE         CLOUDY    34  17  50 NW30G39   30.15R WCI  20
WINNER         MOCLDY    32  18  56 NW20      30.15S WCI  20
SIOUX FALLS    CLOUDY    24  18  77 NW28G44   29.96S BLWGSNOWWCI   7
OMAHA          LGT SNOW  31  27  85 NW28G33   29.99S FOG     WCI  17
GRAND ISLAND   CLEAR     32  17  54 NW22G31   30.14R WCI  19
KANSAS CITY    CLOUDY    37  26  64 NW26G39   30.00F WCI  25
WICHITA        CLEAR     38  20  48 NW18      30.19S WCI  28
OKLAHOMA CITY  MOCLDY    44  17  33 NW20      30.28R
LIBERAL        PTCLDY    28  10  47 NW9       30.37S WCI  20
HAYS           CLEAR     34  14  44 NW23G31   30.25R WCI  22
GOODLAND       CLOUDY    28  15  58 NW20      30.32S WCI  15
$$




USA.gov is the U.S. government's official web portal to all federal, state and local government web resources and services.